{"data":{"norad_id":65607,"intl_designator":"2025-207R","name":"STARLINK-35156","alt_names":[],"object_type":"PAYLOAD","status":"ACTIVE","operator":null,"country":"US","launch_date":"2025-09-13","launch_site_code":"AFWTR","launch_vehicle":null,"mission":null,"orbit_class":"UNKNOWN","rcs_meters":null,"size_class":null,"mass_kg":null,"dimensions":null,"purposes":["comms"],"wikipedia_slug":null,"has_3d_model":false,"image_url":null,"decayed_at":null,"tle_current":{"epoch":"2026-09-20T22:00:03.000096Z","epoch_age_seconds":76000,"freshness":"FRESH","line1":"1 65607U 25207R   26263.91670139  .00000841  00000+0  28404-4 0  9999","line2":"2 65607  97.2882 326.4396 0002262  86.2213 224.3899 15.33417571  5794","mean_motion":15.33417571,"eccentricity":0.0002262,"inclination_deg":97.2882,"raan_deg":326.4396,"arg_perigee_deg":86.2213,"mean_anomaly_deg":224.3899,"bstar":2.8404e-5,"rev_number":579,"period_min":93.907884403654,"perigee_km":464.07672618489,"apogee_km":467.17284401647,"semimajor_km":6843.7617851007,"source":"CELESTRAK","updated_at":"2026-09-21T09:00:35.656050Z"}}}